Terug naar catalogus

COSMOS 2352

ActiefMilitairPO
NORAD 25363·PAYLOAD·🇷🇺 Russia

Gelanceerd Jun 15, 1998 vanaf Plesetsk Cosmodrome

Loading…

Volgende Passages (komende 24 uur)

TLE

VersSource: Space-Track

Epoch: Sep 14, 2026, 14:52 UTC

1 25363U 98036A   26257.61967375 -.00000000  00000-0 -96146-4 0  9993
2 25363  82.5924 310.3631 0353430  76.5038  74.6962 12.20138489258204

Volg COSMOS 2352 in realtime met AllMySat

Download on the App Store